DW6903 Weather Reports


time (UTC)temp
F
wind
direction
speed
knots
gust
knots
rain 1hr
in
rain 24hr
in
rain mn
in
humidity
%
barometer
mb
20240521034506 51 129 0.9 2.6 0.00 0.00 0.00 92 1014.8
20240521033603 51 143 0.0 2.6 0.00 0.00 0.00 91 1014.8
20240521032703 51 148 0.9 2.6 0.00 0.00 0.00 91 1015.0
20240521031803 51 155 0.9 5.2 0.00 0.00 0.00 91 1015.0
20240521030903 51 168 1.7 5.2 0.00 0.00 0.00 91 1015.1
20240521030004 52 177 1.7 5.2 0.00 0.00 0.00 91 1015.2
20240521025403 52 181 1.7 6.1 0.00 0.00 0.00 91 1015.2
20240521024503 52 182 0.9 2.6 0.00 0.00 0.00 90 1015.2
20240521023705 52 172 0.9 3.5 0.00 0.00 0.00 90 1015.0
20240521022704 52 171 1.7 4.3 0.00 0.00 0.00 90 1015.0
20240521021905 52 137 2.6 7.0 0.00 0.00 0.00 90 1014.8
20240521020903 52 123 0.9 3.5 0.00 0.00 0.00 90 1014.8
20240521020107 52 158 0.9 4.3 0.00 0.00 0.00 89 1014.9
20240521015403 53 159 0.9 4.3 0.00 0.00 0.00 89 1014.9
20240521014504 53 164 0.9 4.3 0.00 0.00 0.00 89 1014.9
20240521013603 53 169 1.7 4.3 0.00 0.00 0.00 89 1015.0
20240521012703 53 167 0.9 5.2 0.00 0.00 0.00 88 1015.0
20240521011803 54 154 1.7 4.3 0.00 0.00 0.00 88 1014.8
20240521010903 54 149 0.9 3.5 0.00 0.00 0.00 88 1014.6
20240521010003 54 152 1.7 6.1 0.00 0.00 0.00 88 1014.7
20240521005403 55 145 1.7 4.3 0.00 0.00 0.00 87 1014.5
20240521004503 55 143 1.7 7.0 0.00 0.00 0.00 87 1014.4
20240521003707 56 139 1.7 6.1 0.00 0.00 0.00 86 1014.3
20240521002703 56 129 2.6 7.0 0.00 0.00 0.00 85 1014.3
20240521001803 57 136 1.7 6.1 0.00 0.00 0.00 85 1014.3
20240521000903 58 170 2.6 5.2 0.00 0.00 0.00 84 1014.3
20240521000106 58 169 2.6 7.0 0.00 0.00 0.00 83 1014.3
20240520235403 58 164 2.6 6.1 0.00 0.00 0.00 82 1014.3
20240520234504 59 150 1.7 6.1 0.00 0.00 0.00 82 1014.3
20240520233707 60 157 1.7 5.2 0.00 0.00 0.00 81 1014.3
20240520232703 61 165 2.6 7.0 0.00 0.00 0.00 80 1014.4
20240520231803 61 156 2.6 7.0 0.00 0.00 0.00 79 1014.4
20240520231006 62 138 3.5 9.6 0.00 0.00 0.00 78 1014.3
20240520230106 63 138 1.7 7.0 0.00 0.00 0.00 77 1014.3
20240520225507 63 132 1.7 7.0 0.00 0.00 0.00 77 1014.3
20240520224503 63 118 2.6 7.8 0.00 0.00 0.00 76 1014.4
20240520223708 64 118 2.6 6.1 0.00 0.00 0.00 77 1014.5
20240520222705 64 115 2.6 6.1 0.00 0.00 0.00 76 1014.5
20240520221803 64 148 1.7 4.3 0.00 0.00 0.00 76 1014.6
20240520220903 64 164 1.7 5.2 0.00 0.00 0.00 76 1014.7
20240520220105 64 124 2.6 7.8 0.00 0.00 0.00 76 1014.7
20240520215404 64 121 2.6 7.8 0.00 0.00 0.00 75 1014.7
20240520214505 64 124 3.5 7.8 0.00 0.00 0.00 75 1014.8
20240520213604 64 136 2.6 7.8 0.00 0.00 0.00 75 1014.7
20240520212703 65 137 3.5 7.8 0.00 0.00 0.00 75 1014.8
20240520211804 65 116 3.5 7.8 0.00 0.00 0.00 73 1014.9
20240520211006 66 117 3.5 9.6 0.00 0.00 0.00 73 1014.9
20240520210003 66 146 3.5 8.7 0.00 0.00 0.00 73 1014.9
20240520205506 66 141 4.3 8.7 0.00 0.00 0.00 73 1014.9
20240520204503 67 129 1.7 6.1 0.00 0.00 0.00 72 1015.0
20240520203603 66 77 3.5 8.7 0.00 0.00 0.00 71 1015.0
20240520202703 67 85 4.3 8.7 0.00 0.00 0.00 70 1015.1
20240520201908 68 102 3.5 8.7 0.00 0.00 0.00 70 1015.0
20240520201005 68 121 2.6 7.0 0.00 0.00 0.00 69 1015.0
20240520200003 68 125 2.6 7.0 0.00 0.00 0.00 68 1015.1
20240520195404 69 109 1.7 7.0 0.00 0.00 0.00 71 1015.2
20240520194503 68 127 2.6 6.1 0.00 0.00 0.00 69 1015.2
20240520193604 68 112 1.7 5.2 0.00 0.00 0.00 74 1015.3
20240520192703 67 75 3.5 8.7 0.00 0.00 0.00 71 1015.5
20240520191804 67 62 5.2 8.7 0.00 0.00 0.00 70 1015.5
20240520190903 68 98 2.6 6.1 0.00 0.00 0.00 69 1015.7
20240520190003 68 132 2.6 7.0 0.00 0.00 0.00 70 1015.8
20240520185403 67 90 1.7 7.0 0.00 0.00 0.00 71 1015.7
20240520184503 67 51 2.6 4.3 0.00 0.00 0.00 75 1015.8
20240520183705 67 77 2.6 7.0 0.00 0.00 0.00 73 1015.9
20240520182703 66 73 2.6 7.8 0.00 0.00 0.00 73 1016.0
20240520181803 66 54 2.6 8.7 0.00 0.00 0.00 74 1016.0
20240520180904 65 134 1.7 5.2 0.00 0.00 0.00 74 1015.9
20240520180003 64 108 3.5 8.7 0.00 0.00 0.00 75 1016.0
20240520175403 64 73 3.5 8.7 0.00 0.00 0.00 76 1016.0
20240520174504 64 31 2.6 7.8 0.00 0.00 0.00 76 1016.1
20240520173603 63 41 2.6 7.0 0.00 0.00 0.00 77 1016.3
20240520172703 63 31 2.6 5.2 0.00 0.00 0.00 76 1016.2
20240520171804 64 186 1.7 6.1 0.00 0.00 0.00 80 1016.3
20240520171005 63 35 1.7 6.1 0.00 0.00 0.00 80 1016.3
20240520170107 62 59 3.5 7.0 0.00 0.00 0.00 79 1016.5
20240520165505 62 49 2.6 5.2 0.00 0.00 0.00 79 1016.4
20240520164605 62 59 2.6 4.3 0.00 0.00 0.00 79 1016.7
20240520163603 62 109 1.7 4.3 0.00 0.00 0.00 78 1016.9
20240520162705 62 104 1.7 5.2 0.00 0.00 0.00 80 1016.8
20240520161803 61 35 1.7 3.5 0.00 0.00 0.00 82 1016.8
20240520160904 60 350 1.7 3.5 0.00 0.00 0.00 82 1017.0
20240520160005 60 312 0.9 2.6 0.00 0.00 0.00 81 1017.0
20240520155404 60 271 0.9 3.5 0.00 0.00 0.00 83 1017.0
20240520154606 60 47 1.7 4.3 0.00 0.00 0.00 82 1017.0
20240520153603 60 323 0.9 2.6 0.00 0.00 0.00 85 1017.1
20240520152806 59 342 0.9 2.6 0.00 0.00 0.00 85 1017.1
20240520151804 59 148 0.9 2.6 0.00 0.00 0.00 84 1017.0
20240520150903 58 157 0.9 3.5 0.00 0.00 0.00 85 1016.9
20240520150003 58 57 0.9 3.5 0.00 0.00 0.00 85 1016.9
20240520145404 58 71 1.7 3.5 0.00 0.00 0.00 86 1016.7
20240520144503 58 93 1.7 3.5 0.00 0.00 0.00 86 1016.6
20240520143604 58 149 0.9 3.5 0.00 0.00 0.00 86 1016.6
20240520142807 57 78 1.7 2.6 0.00 0.00 0.00 88 1016.7
20240520141804 57 347 0.9 3.5 0.00 0.00 0.00 88 1016.5
20240520140904 57 347 0.9 1.7 0.00 0.00 0.00 89 1016.7
20240520140005 56 64 0.0 2.6 0.00 0.00 0.00 90 1016.8
20240520135404 56 64 0.9 2.6 0.00 0.00 0.00 90 1016.9
20240520134504 56 39 1.7 3.5 0.00 0.00 0.00 92 1017.0
20240520133603 55 40 1.7 4.3 0.00 0.00 0.00 93 1017.1
20240520132703 55 13 2.6 5.2 0.00 0.00 0.00 93 1017.2
20240520131806 55 2 1.7 3.5 0.00 0.00 0.00 94 1017.2
20240520130904 54 39 2.6 4.3 0.00 0.00 0.00 95 1017.2
20240520130003 54 33 2.6 4.3 0.00 0.00 0.00 95 1017.2
20240520125406 54 41 1.7 4.3 0.00 0.00 0.00 96 1017.3
20240520124605 54 52 2.6 6.1 0.00 0.00 0.00 96 1017.3
20240520123603 53 27 1.7 3.5 0.00 0.00 0.00 97 1017.3
20240520122703 53 1 0.9 2.6 0.00 0.00 0.00 97 1017.2
20240520121803 53 339 0.9 1.7 0.00 0.00 0.00 97 1017.1
20240520120903 53 306 0.9 2.6 0.00 0.00 0.00 97 1017.3
20240520120005 52 21 0.9 2.6 0.00 0.00 0.00 97 1017.3
20240520115403 52 59 0.0 1.7 0.00 0.00 0.00 97 1017.1
20240520114504 52 60 0.9 1.7 0.00 0.00 0.00 97 1017.1
20240520113603 52 62 0.9 3.5 0.00 0.00 0.00 97 1016.9
20240520112705 51 90 0.9 2.6 0.00 0.00 0.00 97 1016.8
20240520111803 51 87 0.9 2.6 0.00 0.00 0.00 97 1016.7
20240520110903 51 66 0.9 3.5 0.00 0.00 0.00 97 1016.6
20240520110006 51 115 0.0 1.7 0.00 0.00 0.00 97 1016.7
20240520105403 51 117 0.0 1.7 0.00 0.00 0.00 96 1016.7
20240520104606 51 184 0.0 0.9 0.00 0.00 0.00 96 1016.6
20240520103603 50 58 0.0 1.7 0.00 0.00 0.00 97 1016.6
20240520102704 50 58 0.0 2.6 0.00 0.00 0.00 97 1016.5
20240520101804 50 58 0.0 1.7 0.00 0.00 0.00 96 1016.5
20240520100904 50 58 0.9 1.7 0.00 0.00 0.00 96 1016.4
20240520100107 50 53 0.0 1.7 0.00 0.00 0.00 97 1016.5
20240520095403 50 0 0.0 0.0 0.00 0.00 0.00 97 1016.5
20240520094503 49 60 0.0 1.7 0.00 0.00 0.00 96 1016.5
20240520093603 49 0 0.0 0.0 0.00 0.00 0.00 96 1016.5
20240520092703 49 59 0.0 1.7 0.00 0.01 0.00 96 1016.4
20240520091803 49 342 0.0 1.7 0.00 0.01 0.00 96 1016.3
20240520090903 48 0 0.0 0.0 0.00 0.01 0.00 96 1016.4
20240520090003 48 0 0.0 0.0 0.00 0.01 0.00 96 1016.4
20240520085403 48 0 0.0 0.0 0.00 0.01 0.00 96 1016.3
20240520084503 48 0 0.0 0.0 0.00 0.01 0.00 96 1016.1
20240520083603 48 0 0.0 0.0 0.00 0.01 0.00 96 1016.1
20240520082806 48 0 0.0 0.0 0.00 0.01 0.00 96 1016.3
20240520081803 48 0 0.0 0.0 0.00 0.01 0.00 96 1016.3
20240520080903 48 0 0.0 0.0 0.00 0.01 0.00 96 1016.4
20240520080004 48 0 0.0 0.0 0.00 0.01 0.00 96 1016.4
20240520075505 48 0 0.0 0.0 0.00 0.01 0.00 96 1016.4
20240520074503 47 0 0.0 0.0 0.00 0.01 0.00 96 1016.3
20240520073604 47 0 0.0 0.0 0.00 0.01 0.00 96 1016.2
20240520072703 47 0 0.0 0.0 0.00 0.01 0.00 95 1016.1
20240520071804 47 0 0.0 0.0 0.00 0.01 0.00 96 1016.1
20240520070903 47 0 0.0 0.0 0.00 0.01 0.00 96 1016.1
20240520070106 47 0 0.0 0.0 0.00 0.01 0.00 96 1016.1
20240520065405 47 0 0.0 0.0 0.00 0.01 0.00 95 1016.1
20240520064503 47 0 0.0 0.0 0.00 0.01 0.00 95 1016.2
20240520063706 47 0 0.0 0.0 0.00 0.01 0.00 95 1016.3
20240520062703 47 0 0.0 0.0 0.00 0.01 0.00 96 1016.4
20240520061803 47 0 0.0 0.0 0.00 0.01 0.00 96 1016.6
20240520060904 47 0 0.0 0.0 0.00 0.01 0.00 95 1016.6
20240520060004 47 0 0.0 0.0 0.00 0.01 0.00 95 1016.5
20240520055403 47 0 0.0 0.0 0.00 0.01 0.00 95 1016.5
20240520054606 47 0 0.0 0.0 0.00 0.01 0.00 95 1016.5
20240520053603 48 292 0.0 1.7 0.00 0.01 0.00 95 1016.3
20240520052704 48 292 0.0 1.7 0.00 0.01 0.00 95 1016.5
20240520051803 48 298 0.0 0.9 0.00 0.01 0.00 95 1016.6
20240520051005 47 298 0.0 0.9 0.00 0.01 0.00 95 1016.7
20240520050004 48 304 0.0 1.7 0.00 0.01 0.00 95 1016.6
20240520045403 48 303 0.9 1.7 0.00 0.01 0.00 95 1016.6
20240520044504 48 292 0.9 2.6 0.00 0.01 0.00 95 1016.7
20240520043603 48 277 1.7 2.6 0.00 0.01 0.00 95 1016.8
20240520042704 48 274 1.7 2.6 0.00 0.01 0.00 95 1016.8
20240520041803 48 271 0.9 2.6 0.00 0.01 0.00 95 1016.8
20240520040904 48 271 0.9 1.7 0.00 0.01 0.00 95 1016.7
20240520040003 48 271 0.0 1.7 0.00 0.01 0.00 95 1016.8
20240520035403 48 271 0.9 2.6 0.00 0.01 0.01 95 1016.8